Weather History for Marion, SC

Change the Weather History Date:

Thursday, June 27, 2013

  Actual Average (KFLO) Record (KFLO)
Temperature  
Mean Temperature 79 °F 80 °F  
Max Temperature 89 °F 90 °F 108 °F (1954)
Min Temperature 69 °F 70 °F 58 °F (2012)
Degree Days  
Heating Degree Days 0 0  
Month to date heating degree days 0  
Since 1 June heating degree days 0  
Since 1 July heating degree days 2523  
Cooling Degree Days 14 15  
Month to date cooling degree days 351  
Year to date cooling degree days 658  
Since 1 June cooling degree days 351  
Growing Degree Days 29 (Base 50)    
Moisture  
Dew Point 74 °F    
Average Humidity 84    
Maximum Humidity 100    
Minimum Humidity 55    
Precipitation  
Precipitation 0.12 in 0.15 in 2.78 in (1951)
Month to date precipitation 4.16  
Year to date precipitation 19.52  
Sea Level Pressure  
Sea Level Pressure 29.87 in    
Wind  
Wind Speed 6 mph (SSW)    
Max Wind Speed 16 mph    
Max Gust Speed 26 mph    
Visibility 10 miles    
Events Rain , Thunderstorm    
T = Trace of Precipitation, MM = Missing Value Source: NWS Daily Summary

Daily Weather History Graph

Daily Weather History Graph

Search for Another Location

Airport:

Trip Planner

Search our weather history database for the weather conditions in past years. The results will help you decide how hot, cold, wet, or windy it might be!

Date:

Astronomy

Jun. 27, 2013 Rise Set
Actual Time 6:07 AM EDT 8:33 PM EDT
Civil Twilight 5:38 AM EDT 9:02 PM EDT
Nautical Twilight 5:02 AM EDT 9:38 PM EDT
Astronomical Twilight 4:22 AM EDT 10:17 PM EDT
Moon 11:44 PM EDT (6/27) 10:53 AM EDT (6/27)
Length of Visible Light 15h 23m
Length of Day
14h 25m
Waning Gibbous, 76% of the Moon is Illuminated
Jun 27
Waning Gibbous
Jun 30
Last Quarter
Jul 8
New
Jul 15
First Quarter
Jul 22
Full

Hourly Weather History & Observations

Time (EDT) Temp. Heat Index Dew Point Humidity Pressure Visibility Wind Dir Wind Speed Gust Speed Precip Events Conditions
12:15 AM 69.8 °F - 69.8 °F 100% 29.99 in 10.0 mi SSE 5.8 mph - N/A   Clear
12:35 AM 69.8 °F - 69.8 °F 100% 29.98 in 10.0 mi Calm Calm - N/A   Clear
12:55 AM 69.8 °F - 69.8 °F 100% 29.97 in 10.0 mi South 4.6 mph - N/A Thunderstorm Clear
1:15 AM 69.8 °F - 69.8 °F 100% 29.97 in 10.0 mi Calm Calm - N/A   Clear
1:35 AM 69.8 °F - 69.8 °F 100% 29.96 in 10.0 mi South 3.5 mph - N/A Thunderstorm Clear
2:15 AM 69.8 °F - 69.8 °F 100% 29.96 in 10.0 mi Calm Calm - N/A   Clear
2:35 AM 69.8 °F - 69.8 °F 100% 29.95 in 10.0 mi Calm Calm - N/A   Mostly Cloudy
2:55 AM 71.6 °F - 71.6 °F 100% 29.95 in 10.0 mi SSW 4.6 mph - N/A   Mostly Cloudy
3:15 AM 71.6 °F - 71.6 °F 100% 29.95 in 10.0 mi SSW 4.6 mph - 0.01 in   Scattered Clouds
3:35 AM 71.6 °F - 71.6 °F 100% 29.95 in 10.0 mi South 4.6 mph - 0.01 in   Mostly Cloudy
3:55 AM 71.6 °F - 71.6 °F 100% 29.94 in 7.0 mi South 4.6 mph - 0.01 in   Overcast
4:15 AM 71.6 °F - 71.6 °F 100% 29.94 in 7.0 mi SSW 5.8 mph - N/A   Overcast
4:35 AM - - - N/A% 29.93 in 7.0 mi South 6.9 mph - N/A   Overcast
4:55 AM - - - N/A% 29.92 in 7.0 mi South 6.9 mph - N/A   Overcast
5:15 AM - - - N/A% 29.92 in 10.0 mi South 6.9 mph - N/A   Scattered Clouds
5:35 AM - - - N/A% 29.92 in 10.0 mi SSW 4.6 mph - N/A   Clear
5:55 AM - - - N/A% 29.92 in 10.0 mi SSW 5.8 mph - N/A   Clear
6:15 AM - - - N/A% 29.92 in 10.0 mi SSW 4.6 mph - N/A   Clear
6:35 AM - - - N/A% 29.93 in 10.0 mi SSW 4.6 mph - N/A   Clear
6:55 AM 73.4 °F - 73.4 °F 100% 29.93 in 10.0 mi SSW 4.6 mph - N/A   Clear
7:15 AM 73.4 °F - 73.4 °F 100% 29.93 in 10.0 mi SSW 5.8 mph - N/A   Clear
7:35 AM 73.4 °F - 73.4 °F 100% 29.93 in 10.0 mi SSW 4.6 mph - N/A   Clear
7:55 AM 75.2 °F - 75.2 °F 100% 29.93 in 10.0 mi SSW 8.1 mph - N/A   Clear
8:15 AM 77.0 °F - 77.0 °F 100% 29.93 in 10.0 mi SW 6.9 mph - N/A   Scattered Clouds
8:35 AM 77.0 °F - 77.0 °F 100% 29.93 in 10.0 mi SW 6.9 mph - N/A   Clear
8:55 AM 78.8 °F - 75.2 °F 89% 29.92 in 10.0 mi SW 5.8 mph - N/A   Clear
9:15 AM 78.8 °F - 73.4 °F 83% 29.92 in 10.0 mi SW 10.4 mph - N/A   Clear
9:35 AM 80.6 °F 85.4 °F 73.4 °F 79% 29.90 in 10.0 mi SW 9.2 mph - N/A   Clear
9:55 AM 82.4 °F 88.2 °F 73.4 °F 74% 29.90 in 10.0 mi SW 11.5 mph 17.3 mph N/A   Clear
10:15 AM 82.4 °F 88.2 °F 73.4 °F 74% 29.90 in 10.0 mi SW 10.4 mph 17.3 mph N/A   Clear
10:35 AM 84.2 °F 90.9 °F 73.4 °F 70% 29.89 in 10.0 mi SW 10.4 mph - N/A   Clear
10:55 AM 84.2 °F 90.9 °F 73.4 °F 70% 29.89 in 10.0 mi SW 11.5 mph - N/A   Clear
11:15 AM 86.0 °F 93.4 °F 73.4 °F 66% 29.89 in 10.0 mi West 11.5 mph 18.4 mph N/A   Scattered Clouds
11:35 AM 86.0 °F 93.4 °F 73.4 °F 66% 29.89 in 10.0 mi SSW 10.4 mph 17.3 mph N/A   Scattered Clouds
11:55 AM 87.8 °F 95.6 °F 73.4 °F 62% 29.89 in 10.0 mi WSW 12.7 mph 20.7 mph N/A   Scattered Clouds
12:15 PM 87.8 °F 95.6 °F 73.4 °F 62% 29.88 in 10.0 mi SW 13.8 mph - N/A   Scattered Clouds
12:35 PM 87.8 °F 95.6 °F 73.4 °F 62% 29.88 in 10.0 mi WSW 11.5 mph 18.4 mph N/A   Scattered Clouds
12:55 PM 87.8 °F 95.6 °F 73.4 °F 62% 29.88 in 10.0 mi SW 12.7 mph 18.4 mph N/A   Mostly Cloudy
1:15 PM 89.6 °F 98.2 °F 73.4 °F 59% 29.88 in 10.0 mi WSW 12.7 mph 18.4 mph N/A   Scattered Clouds
1:35 PM 89.6 °F 96.2 °F 71.6 °F 55% 29.87 in 10.0 mi SW 16.1 mph 26.5 mph N/A   Scattered Clouds
1:55 PM 89.6 °F 96.2 °F 71.6 °F 55% 29.86 in 10.0 mi WSW 15.0 mph 21.9 mph N/A   Scattered Clouds
2:15 PM 89.6 °F 96.2 °F 71.6 °F 55% 29.85 in 10.0 mi SW 15.0 mph 23.0 mph N/A   Scattered Clouds
2:35 PM 89.6 °F 96.2 °F 71.6 °F 55% 29.84 in 10.0 mi SW 11.5 mph 16.1 mph N/A   Scattered Clouds
2:55 PM 89.6 °F 96.2 °F 71.6 °F 55% 29.82 in 10.0 mi SSW 10.4 mph 18.4 mph N/A   Scattered Clouds
3:15 PM 89.6 °F 98.2 °F 73.4 °F 59% 29.81 in 10.0 mi SSW 8.1 mph 16.1 mph N/A   Mostly Cloudy
3:35 PM 89.6 °F 96.2 °F 71.6 °F 55% 29.79 in 10.0 mi SSW 12.7 mph 17.3 mph N/A   Scattered Clouds
3:55 PM 89.6 °F 96.2 °F 71.6 °F 55% 29.80 in 10.0 mi SW 12.7 mph 16.1 mph N/A   Scattered Clouds
4:15 PM 89.6 °F 96.2 °F 71.6 °F 55% 29.81 in 10.0 mi SSW 10.4 mph 21.9 mph N/A   Mostly Cloudy
4:35 PM 89.6 °F 96.2 °F 71.6 °F 55% 29.78 in 10.0 mi SSW 9.2 mph 16.1 mph N/A   Mostly Cloudy
4:55 PM 89.6 °F 96.2 °F 71.6 °F 55% 29.78 in 10.0 mi SW 13.8 mph 19.6 mph N/A   Scattered Clouds
5:15 PM 84.2 °F 89.6 °F 71.6 °F 66% 29.78 in 10.0 mi West 11.5 mph 26.5 mph N/A Rain , Thunderstorm Thunderstorms and Rain
5:35 PM 80.6 °F 86.2 °F 75.2 °F 84% 29.80 in 10.0 mi SW 8.1 mph 16.1 mph N/A Rain , Thunderstorm Light Thunderstorms and Rain
5:55 PM 80.6 °F 87.1 °F 77.0 °F 89% 29.81 in 10.0 mi NW 5.8 mph - N/A Thunderstorm Thunderstorm
6:15 PM 78.8 °F - 71.6 °F 78% 29.80 in 10.0 mi NW 3.5 mph - N/A Thunderstorm Unknown
6:35 PM 77.0 °F - 73.4 °F 89% 29.80 in 3.0 mi Calm Calm - 0.05 in Rain , Thunderstorm Heavy Thunderstorms and Rain
6:55 PM 77.0 °F - 77.0 °F 100% 29.81 in 5.0 mi Calm Calm - 0.11 in Rain , Thunderstorm Light Thunderstorms and Rain
7:15 PM 77.0 °F - 77.0 °F 100% 29.79 in 7.0 mi South 6.9 mph - N/A   Clear
7:35 PM 77.0 °F - 77.0 °F 100% 29.79 in 10.0 mi SSE 5.8 mph - N/A   Clear
7:55 PM 77.0 °F - 77.0 °F 100% 29.80 in 10.0 mi SSE 6.9 mph - N/A   Clear
8:15 PM 77.0 °F - 77.0 °F 100% 29.81 in 10.0 mi Calm Calm - N/A   Clear
8:35 PM 77.0 °F - 77.0 °F 100% 29.80 in 10.0 mi SSE 5.8 mph - N/A   Clear
8:55 PM 77.0 °F - 77.0 °F 100% 29.81 in 10.0 mi Calm Calm - N/A   Scattered Clouds
9:15 PM 77.0 °F - 77.0 °F 100% 29.80 in 10.0 mi South 10.4 mph - N/A   Scattered Clouds
9:35 PM 77.0 °F - 77.0 °F 100% 29.78 in 10.0 mi South 6.9 mph - N/A   Clear
9:55 PM 77.0 °F - 77.0 °F 100% 29.79 in 10.0 mi SSW 8.1 mph - N/A   Clear
10:15 PM 77.0 °F - 77.0 °F 100% 29.79 in 10.0 mi SSW 6.9 mph - N/A Thunderstorm Clear
10:35 PM 78.8 °F - 78.8 °F 100% 29.80 in 10.0 mi SSW 4.6 mph - N/A   Scattered Clouds
10:55 PM 78.8 °F - 78.8 °F 100% 29.81 in 10.0 mi South 8.1 mph - N/A Thunderstorm Scattered Clouds
11:15 PM 77.0 °F - 77.0 °F 100% 29.83 in 10.0 mi SW 8.1 mph 17.3 mph N/A Thunderstorm Scattered Clouds
11:35 PM 77.0 °F - 73.4 °F 89% 29.82 in 10.0 mi SSW 6.9 mph - N/A Thunderstorm Scattered Clouds
11:55 PM 75.2 °F - 71.6 °F 89% 29.79 in 10.0 mi SSW 4.6 mph - N/A Thunderstorm Scattered Clouds